Simultaneous Nadir Overpasses (SNOs) Predictions

Prediction of SNOs between AQUA and NOAA-19 Satellite Orbit:

Table of predicted SNOs for the next 14.0 days since TLE Epoch: 9/7/2018
Index Date (AQUA) Time (AQUA) Lat,Lon (AQUA) SZA (AQUA ) Date (NOAA-19) Time (NOAA-19) Lat,Lon (NOAA-19) SZA (NOAA-19 ) Distance(km) Time Diff (sec)
1 09/07/2018 14:56:53 80.72, -81.57 76.64 09/07/2018 14:56:44 80.73, -81.61 76.66 1.24 9
2 09/09/2018 20:30:34 -80.73, 14.91 102.53 09/09/2018 20:30:17 -80.72, 14.97 102.53 1.09 17
3 09/09/2018 21:19:59 80.66,-176.66 77.36 09/09/2018 21:21:11 80.79,-175.56 77.33 24.40 72
4 09/12/2018 02:04:16 80.71, 111.63 78.28 09/12/2018 02:03:49 80.72, 111.57 78.30 1.37 27
5 09/12/2018 02:53:42 -80.72, -80.83 101.70 09/12/2018 02:54:50 -80.73, -80.96 101.71 2.36 68
6 09/14/2018 07:37:57 -80.72,-151.87 100.89 09/14/2018 07:37:23 -80.72,-151.81 100.88 1.22 34
7 09/14/2018 08:27:24 80.71, 15.85 79.12 09/14/2018 08:28:21 80.73, 15.74 79.12 2.56 57
8 09/16/2018 13:11:39 80.71, -55.22 79.94 09/16/2018 13:10:54 80.71, -55.34 79.97 2.19 45
9 09/16/2018 14:01:05 -80.72, 112.36 100.04 09/16/2018 14:01:56 -80.72, 112.20 100.04 2.77 51
10 09/18/2018 18:45:20 -80.72, 41.30 99.21 09/18/2018 18:44:29 -80.71, 41.30 99.20 0.92 51
11 09/18/2018 19:34:47 80.71,-151.03 80.80 09/18/2018 19:35:26 80.72,-151.21 80.80 3.33 39
12 09/21/2018 00:19:02 80.72, 137.87 81.63 09/21/2018 00:17:58 80.71, 138.02 81.64 2.75 64




NCC Satellite Simultaneous Nadir Overpasses (SNOs) Prediction Service
